Вернуться в каталог

COSMOS 1285 DEB

LostHEO
NORAD 33522·DEBRIS·🇷🇺 Russia

Запущен Aug 4, 1981 с Plesetsk Cosmodrome

Loading…

Ближайшие Пролёты (ближайшие 24 часа)

TLE

УстаревшееSource: Space-Track

Эпоха: Dec 16, 2011, 05:24 UTC

1 33522U 81071X   11350.22500524  .00000741  00000-0  00000+0 0  9993
2 33522  67.7489  33.4910 6031592 132.8800 338.6183  1.98054330 45527

Отслеживайте COSMOS 1285 DEB в реальном времени с AllMySat

Download on the App Store